Tekamah, NE

5:08 PM CDT on May 20, 2018 (GMT -0500)
Tekamah

Weather History for KTQE - December, 2014

Change the Weather History Date:

Thursday, December 4, 2014

  Actual Average Record
Temperature  
Mean Temperature 29 °F -  
Max Temperature 39 °F 39 °F 60 °F (1948)
Min Temperature 19 °F 18 °F -2 °F (2011)
Degree Days  
Heating Degree Days 36    
Moisture  
Dew Point 18 °F    
Average Humidity 62    
Maximum Humidity 82    
Minimum Humidity 50    
Precipitation  
Precipitation 0.00 in - - ()
Sea Level Pressure  
Sea Level Pressure 30.17 in    
Wind  
Wind Speed 9 mph (SE)    
Max Wind Speed 15 mph    
Max Gust Speed -    
Visibility 10 miles    
Events      
Averages and records for this station are not official NWS values.
T = Trace of Precipitation, MM = Missing Value Source: NWS Daily Summary

Daily Weather History Graph

Daily Weather History Graph

Search for Another Location

Airport or City:

Astronomy

Dec. 04, 2014 Rise Set
Actual Time 7:35 AM CST 4:54 PM CST
Civil Twilight 7:04 AM CST 5:25 PM CST
Nautical Twilight 6:29 AM CST 6:00 PM CST
Astronomical Twilight 5:56 AM CST 6:33 PM CST
Moon 3:58 PM CST (12/4) 5:26 AM CST (12/4)
Length of Visible Light 10h 21m
Length of Day
9h 18m
Waxing Gibbous, 97% of the Moon is Illuminated
Dec 4
Waxing Gibbous
Dec 6
Full
Dec 14
Last Quarter
Dec 21
New
Dec 28
First Quarter

Hourly Weather History & Observations

Time (CST) Temp. Windchill Dew Point Humidity Pressure Visibility Wind Dir Wind Speed Gust Speed Precip Events Conditions
12:54 AM 30.0 °F 24.1 °F 14.0 °F 51% 30.29 in 10.0 mi ESE 5.8 mph - N/A   Clear
1:54 AM 28.0 °F 20.0 °F 14.0 °F 56% 30.29 in 10.0 mi ESE 8.1 mph - N/A   Clear
2:54 AM 25.0 °F 15.5 °F 12.9 °F 60% 30.28 in 10.0 mi SE 9.2 mph - N/A   Clear
3:54 AM 25.0 °F 19.3 °F 12.9 °F 60% 30.28 in 10.0 mi South 4.6 mph - N/A   Clear
4:54 AM 24.1 °F 13.1 °F 12.9 °F 62% 30.24 in 10.0 mi SE 11.5 mph - N/A   Clear
5:54 AM 21.0 °F 13.4 °F 10.9 °F 65% 30.25 in 10.0 mi SSE 5.8 mph - N/A   Clear
6:54 AM 19.9 °F 10.1 °F 10.9 °F 68% 30.24 in 10.0 mi SE 8.1 mph - N/A   Clear
7:54 AM 19.0 °F 12.3 °F 10.0 °F 68% 30.23 in 10.0 mi SSE 4.6 mph - N/A   Clear
8:54 AM 25.0 °F 14.8 °F 14.0 °F 63% 30.23 in 10.0 mi SE 10.4 mph - N/A   Clear
9:54 AM 30.0 °F 19.5 °F 16.0 °F 56% 30.23 in 10.0 mi SSE 13.8 mph - N/A   Clear
10:54 AM 34.0 °F 25.0 °F 19.0 °F 54% 30.22 in 10.0 mi SSE 12.7 mph - N/A   Clear
11:54 AM 37.0 °F 28.9 °F 19.9 °F 50% 30.18 in 10.0 mi SSE 12.7 mph - N/A   Clear
12:54 PM 37.9 °F 29.6 °F 21.0 °F 51% 30.13 in 10.0 mi SSE 13.8 mph - N/A   Clear
1:54 PM 39.0 °F 30.6 °F 21.9 °F 50% 30.09 in 10.0 mi SSE 15.0 mph - N/A   Clear
2:54 PM 39.0 °F 31.4 °F 21.9 °F 50% 30.09 in 10.0 mi SSE 12.7 mph - N/A   Clear
3:54 PM 39.0 °F 31.8 °F 23.0 °F 53% 30.08 in 10.0 mi SSE 11.5 mph - N/A   Clear
4:54 PM 36.0 °F 28.5 °F 23.0 °F 59% 30.07 in 10.0 mi SE 10.4 mph - N/A   Clear
5:54 PM 34.0 °F 26.0 °F 23.0 °F 64% 30.08 in 10.0 mi SE 10.4 mph - N/A   Clear
6:54 PM 30.9 °F 25.2 °F 21.0 °F 67% 30.08 in 10.0 mi SSE 5.8 mph - N/A   Clear
7:54 PM 28.9 °F 21.1 °F 21.0 °F 72% 30.09 in 10.0 mi SE 8.1 mph - N/A   Clear
8:54 PM 28.0 °F 20.8 °F 19.9 °F 72% 30.09 in 10.0 mi SSE 6.9 mph - N/A   Clear
9:54 PM 30.0 °F 21.7 °F 23.0 °F 75% 30.09 in 10.0 mi SSE 9.2 mph - N/A   Clear
10:54 PM 28.9 °F 21.1 °F 23.0 °F 78% 30.08 in 10.0 mi SE 8.1 mph - N/A   Clear
11:54 PM 28.9 °F 19.8 °F 24.1 °F 82% 30.07 in 9.0 mi SE 10.4 mph - N/A   Clear